Hourly Data Report for September 05, 2017

All times are specified in Local Standard Time (LST). Add 1 hour to adjust for Daylight Saving Time where and when it is observed.

BAKER LAKE A
NUNAVUT

64°17'56.000" N
96°04'40.000" W
18.60 m
2300503
71926
YBK

Download Data

Hourly Data (September 2017)
Hourly Data Report for September 5, 2017
Temp Definition
°C
Dew Point Temp Definition
°C
Rel Hum Definition
%
Wind Dir Definition
10's deg

Wind Spd Definition
km/h
Visibility Definition
km
Stn Press Definition
kPa
Hmdx Definition


Wind Chill Definition


Weather Definition


TIME
00:00 Legend Double Dagger 3.7 1.1 83 31 26 24.1 101.57     Mainly Clear
01:00 Legend Double Dagger 3.6 1.1 84 30 17 24.1 101.57     LegendNANA
02:00 Legend Double Dagger 4.5 1.6 82 31 15 24.1 101.57     LegendNANA
03:00 Legend Double Dagger 4.6 2.0 83 30 11 24.1 101.58     Mostly Cloudy
04:00 Legend Double Dagger 3.6 1.2 84 31 20 24.1 101.57     LegendNANA
05:00 Legend Double Dagger 3.8 1.1 82 30 17 32.2 101.57     LegendNANA
06:00 Legend Double Dagger 4.6 2.1 84 31 21 32.2 101.55     Mainly Clear
07:00 Legend Double Dagger 6.2 3.6 83 31 25 32.2 101.57     LegendNANA
08:00 Legend Double Dagger 6.8 3.4 79 32 21 32.2 101.57     LegendNANA
09:00 Legend Double Dagger 8.2 4.2 76 32 19 32.2 101.57     Mostly Cloudy
10:00 Legend Double Dagger 8.4 3.9 73 34 18 32.2 101.55     LegendNANA
11:00 Legend Double Dagger 8.6 2.4 65 33 19 32.2 101.54     LegendNANA
12:00 Legend Double Dagger 8.6 2.2 64 34 29 32.2 101.56     Mostly Cloudy
13:00 Legend Double Dagger 9.3 1.9 59 31 29 32.2 101.56     LegendNANA
14:00 Legend Double Dagger 9.6 1.6 57 33 22 32.2 101.54     LegendNANA
15:00 Legend Double Dagger 9.8 1.3 55 34 19 32.2 101.53     Cloudy
16:00 Legend Double Dagger 9.7 0.1 51 34 19 32.2 101.54     LegendNANA
17:00 Legend Double Dagger 9.3 0.9 56 35 25 32.2 101.54     LegendNANA
18:00 Legend Double Dagger 8.4 0.7 58 34 21 32.2 101.55     Cloudy
19:00 Legend Double Dagger 8.1 1.1 61 34 13 32.2 101.52     LegendNANA
20:00 Legend Double Dagger 5.0 0.6 73 33 16 32.2 101.52     LegendNANA
21:00 Legend Double Dagger 4.7 1.9 82 33 14 24.1 101.51     Mainly Clear
22:00 Legend Double Dagger 6.2 3.1 81 33 13 24.1 101.54     LegendNANA
23:00 Legend Double Dagger 5.6 3.0 83 32 10 24.1 101.52     LegendNANA

Notes on Data Quality.

Legend

  • E = Estimated
  • M = Missing
  • NA = Not Available
  • ‡ = Partner data that is not subject to review by the National Climate Archives
Date modified: